Location: Heidgraben
(53.7081°N, 9.6576°E)
Time: 00:04:27
(UTC+00:00)

Cosmos 2333 Rocket - Pass Details

Date: 31 October 2020
Orbit: 841 x 861 km, 70.8° (Epoch: 28 November)

Event Time Altitude Azimuth Distance (km) Brightness Sun altitude
Exits shadow 05:15:13 - 327° (NNW) 3,365 4.9 -10.0°
Reaches altitude 10° 05:17:33 10° 330° (NNW) 2,480 4.3 -9.6°
Maximum altitude 05:23:14 67° 54° (NE) 913 2.6 -8.8°
Drops below altitude 10° 05:28:51 10° 137° (SE) 2,457 5.6 -8.0°
Sets 05:31:18 0° 140° (SE) 3,388 6.3 -7.6°
